Wind_Speed
59 58 56 55 54 53 51 50 49 47 45 43 40 37 34 31 29 27 26 25 24 25 25 25 26 26 27 28 29 30 32 35 37 40 42 44 47 49 52 54 57 61 64 69 73 77 81 86 90 95 100 105 110 115 121 126 131 135 139 141 143 145 146 147 148 149 150 151 151 151 152 152 153 153 154 155 156 156 157 158 159 160 161 162 163
59 59 59 59 57 56 56 55 54 53 51 49 47 44 42 39 36 34 32 30 29 28 28 28 29 29 29 30 30 31 32 33 35 37 39 41 43 46 48 50 53 55 58 61 64 68 72 76 80 85 90 94 99 104 109 114 119 124 129 134 138 142 145 148 150 152 153 155 157 158 158 159 159 160 161 162 162 163 163 164 164 165 165 164 164
60 59 60 60 60 59 58 58 58 57 56 55 53 51 49 46 44 41 39 37 35 34 33 32 32 32 32 33 33 33 33 34 35 36 38 39 41 43 45 47 49 51 53 56 59 62 65 68 72 76 80 84 88 92 97 102 106 111 116 121 125 129 133 136 139 142 144 147 150 151 153 153 154 155 156 157 157 157 157 157 157 157 156 156 156
61 60 61 61 61 61 60 60 60 60 59 59 57 56 54 53 51 49 46 44 42 40 39 38 37 36 36 36 36 36 36 36 36 37 38 39 40 41 43 45 46 48 50 52 54 57 60 63 66 70 74 78 81 84 88 91 96 100 104 108 112 116 119 122 125 128 130 133 135 138 139 141 142 143 144 144 144 145 145 145 145 144 144 144 144
61 60 61 62 62 62 62 60 60 60 59 59 58 58 57 56 55 54 52 50 48 47 45 44 42 41 40 39 39 39 39 39 39 39 40 41 41 42 42 44 45 46 48 49 51 53 55 57 60 63 67 72 75 79 82 86 89 92 95 99 102 105 107 110 113 115 117 119 121 123 125 128 129 131 132 132 132 133 133 133 133 133 133 133 133
61 61 61 61 62 62 63 62 60 60 59 59 59 58 57 57 57 56 55 53 52 51 50 49 47 46 45 44 43 43 42 42 42 42 42 43 44 44 45 45 46 46 47 48 50 51 53 55 57 59 62 65 69 72 76 80 83 87 90 92 95 97 99 102 103 105 106 108 109 111 112 114 116 117 119 119 120 120 120 120 121 122 122 122 122
61 61 61 62 62 62 62 62 61 61 61 62 61 60 59 59 58 57 56 55 54 52 51 51 50 49 48 47 47 46 46 45 45 44 44 45 46 47 47 48 48 48 48 49 50 51 53 54 56 57 60 62 65 68 70 73 77 80 83 86 89 91 93 95 97 98 99 100 101 103 104 105 106 108 109 110 110 110 110 110 111 112 112 112 113
60 60 61 62 63 62 62 62 62 63 63 64 64 63 63 62 61 59 58 56 55 54 53 52 51 51 50 49 49 49 48 48 48 47 47 48 48 49 49 50 50 50 50 50 50 51 53 54 55 56 58 60 63 66 68 71 73 76 78 81 83 85 87 89 91 92 93 94 95 96 97 98 99 101 101 102 102 103 103 104 104 105 106 106 107
59 60 62 63 64 64 63 62 62 63 64 65 66 66 66 65 63 62 61 59 58 56 55 53 53 53 52 51 50 50 50 50 49 49 50 50 50 51 51 51 52 52 52 52 52 53 54 55 56 56 57 58 60 63 66 68 70 73 75 77 79 80 82 84 85 87 88 89 90 91 92 92 93 94 94 95 95 96 97 98 98 99 99 100 101
57 59 62 64 65 65 64 63 63 63 64 66 68 68 68 68 67 66 64 62 61 60 58 57 55 55 54 53 51 50 50 50 49 49 50 51 52 52 53 54 54 54 54 54 54 54 55 56 57 58 58 58 60 62 64 67 69 71 73 74 75 76 78 79 80 82 83 84 86 87 88 89 89 89 89 90 90 90 91 92 92 93 94 94 95
58 60 63 64 65 65 65 66 65 64 65 67 69 70 70 70 69 68 66 65 64 63 62 60 59 58 57 56 54 52 51 49 48 49 50 51 52 53 54 55 56 56 56 56 56 56 56 57 58 59 59 60 61 63 65 67 69 70 72 73 74 74 75 75 76 77 78 79 81 82 84 85 86 86 86 87 87 87 88 88 89 89 90 90 91
59 61 64 65 66 66 66 68 67 66 66 68 69 72 73 72 71 69 68 67 66 65 64 63 62 61 60 60 59 57 55 52 49 49 50 51 51 52 54 56 57 58 58 58 58 58 58 59 60 61 61 61 63 65 66 68 69 70 71 72 72 73 74 74 74 74 75 76 77 78 80 81 82 83 83 84 85 85 85 85 86 87 87 87 88
61 65 67 68 67 66 66 69 71 70 69 69 71 73 74 74 73 72 71 69 67 66 64 63 63 62 62 62 61 61 60 57 54 52 51 52 52 52 54 56 58 59 60 60 60 60 60 61 62 63 63 64 65 67 68 69 70 71 71 71 71 72 73 73 74 74 74 75 76 76 77 78 79 80 81 82 82 82 82 83 83 84 84 85 85
66 68 71 71 69 67 68 72 74 74 73 73 73 74 75 75 75 74 73 72 70 68 65 63 63 63 62 62 62 63 63 61 58 55 54 53 53 54 55 56 57 59 60 61 61 61 62 63 64 65 65 67 68 69 70 71 72 71 71 70 70 71 71 72 73 73 74 74 75 76 77 77 78 79 79 80 80 80 81 81 81 81 81 82 82
68 70 73 73 72 71 72 75 78 78 77 76 77 78 79 78 76 75 76 75 72 70 67 64 63 63 62 62 62 63 63 62 60 58 56 55 55 55 56 57 58 59 61 62 62 62 63 64 65 66 67 69 70 71 72 73 73 72 71 70 70 70 71 71 72 72 73 74 75 75 76 77 78 78 79 79 79 79 80 80 80 80 80 80 81
70 72 75 76 76 76 76 78 80 81 81 81 81 82 82 81 80 79 79 78 75 72 70 67 66 65 64 63 62 62 63 63 61 59 58 57 56 57 57 58 59 60 62 63 63 63 65 66 66 67 69 71 72 73 74 75 74 73 72 71 70 70 70 70 70 71 72 73 73 74 75 76 77 78 78 78 78 79 79 79 80 80 80 80 80
71 73 76 78 80 80 80 81 82 84 84 85 85 86 87 86 85 84 83 81 78 75 73 71 70 68 66 64 63 62 62 62 61 60 59 58 57 58 59 59 60 61 63 64 64 65 66 67 67 68 70 73 75 76 77 76 75 74 73 72 71 71 71 70 70 70 71 71 72 73 74 75 76 76 77 78 78 79 79 79 79 80 80 80 80
73 75 77 80 82 84 84 84 85 86 87 88 89 90 91 90 90 89 87 85 82 79 76 75 74 71 68 66 64 62 62 62 61 60 59 59 58 59 60 60 62 63 64 64 65 66 67 68 68 70 72 75 77 78 77 76 75 74 73 72 72 72 72 71 71 70 70 71 71 72 72 73 74 75 76 77 77 78 78 78 79 79 79 80 80
76 77 79 81 84 86 87 88 88 89 89 90 91 92 93 93 94 93 92 90 87 84 81 79 77 74 70 67 64 62 61 61 60 59 59 59 59 59 60 61 63 64 65 65 66 66 67 68 70 72 74 76 77 77 77 76 76 75 74 73 73 73 72 72 71 71 71 71 71 71 72 72 73 74 75 76 76 77 78 78 78 79 79 79 81
78 79 81 83 86 88 89 90 91 91 91 91 92 94 96 96 97 98 97 95 93 89 85 82 79 75 72 67 63 61 59 59 59 58 58 59 60 60 61 62 64 65 65 65 66 67 69 71 73 74 75 75 75 76 76 76 76 76 75 74 73 73 73 73 72 71 71 71 71 71 72 72 73 73 74 75 76 77 78 78 79 79 79 80 81
80 82 84 86 87 89 91 92 93 94 94 94 94 96 99 99 100 102 101 100 97 93 88 84 79 76 72 67 62 60 59 58 58 58 58 59 60 61 62 63 65 65 65 66 67 68 70 71 72 73 73 74 75 77 77 76 77 77 76 75 74 73 72 72 72 71 71 71 71 72 72 73 73 74 74 76 77 78 79 79 80 81 82 82 83
83 84 86 88 89 91 93 94 96 96 96 95 95 97 100 102 104 105 106 104 101 96 90 85 81 77 74 68 64 61 60 58 57 58 58 59 61 62 63 63 64 64 64 65 66 68 69 70 71 72 73 75 76 77 77 77 77 77 77 75 74 73 73 72 71 71 71 71 72 72 73 73 74 74 75 76 77 78 79 80 81 82 83 84 85
85 87 89 90 92 93 95 96 97 98 97 96 95 97 100 104 106 108 109 107 102 97 92 87 83 80 75 70 65 62 59 58 57 58 59 60 61 61 61 61 61 62 63 63 65 66 67 69 71 73 74 75 76 77 77 78 77 77 77 76 75 74 73 72 72 71 71 72 72 73 74 74 75 75 76 77 78 79 80 80 81 83 84 85 86
87 89 91 93 95 96 97 98 99 99 98 97 96 98 102 105 106 108 110 107 101 96 92 86 83 80 75 69 65 62 60 58 57 57 59 59 59 59 60 60 61 62 62 63 65 66 67 69 71 73 74 75 76 77 78 78 78 77 77 76 76 75 74 73 73 73 73 73 74 74 75 75 75 76 76 77 78 79 80 81 82 83 84 85 86
89 91 94 95 97 99 100 101 102 101 100 99 99 102 105 107 108 109 109 105 99 94 90 85 81 79 73 67 64 63 61 59 58 58 58 59 59 59 59 60 61 62 63 63 65 66 67 69 70 72 73 75 76 77 77 78 78 78 77 77 76 76 76 76 76 75 75 75 75 76 76 76 76 77 78 78 79 80 81 81 82 84 84 85 85
93 95 97 98 100 101 102 103 103 103 102 102 104 106 108 109 110 109 106 101 96 91 87 83 80 77 71 66 64 64 62 61 61 61 61 61 61 61 61 62 63 63 63 63 64 65 67 68 70 71 73 74 75 76 77 78 78 78 78 78 78 78 78 78 77 77 77 77 77 77 78 78 78 78 79 80 80 81 82 82 82 83 84 85 85
97 98 100 101 102 104 104 104 104 104 104 105 106 108 110 110 109 105 101 96 91 87 83 81 78 74 68 64 64 64 63 63 64 65 65 64 63 63 64 64 64 64 64 64 64 66 67 69 70 72 73 74 76 77 78 79 79 79 80 80 80 80 79 79 78 78 78 78 78 78 79 79 79 80 80 81 82 82 82 82 82 83 84 85 86
99 101 102 104 105 106 106 105 104 104 105 106 108 108 108 106 102 99 95 90 85 82 80 78 76 71 65 63 63 63 63 64 66 67 67 66 65 65 65 65 65 65 64 64 65 67 68 70 71 73 74 75 77 79 80 81 81 80 80 80 80 80 79 79 78 78 78 78 78 79 79 80 80 81 81 82 82 83 83 83 83 84 85 86 88
101 103 105 107 108 108 107 106 105 105 105 105 105 104 102 99 96 93 90 86 81 79 77 76 73 68 63 62 63 63 63 65 67 68 68 68 67 67 67 66 66 65 64 65 66 68 69 71 73 74 75 77 78 79 80 80 80 79 79 79 79 78 78 78 78 78 78 79 79 79 80 80 81 82 82 83 84 84 85 85 86 86 87 89 90
103 106 108 109 109 109 107 106 105 104 102 101 99 97 95 93 91 88 85 82 79 77 75 73 70 66 62 63 65 65 65 67 68 69 69 68 68 68 68 67 67 65 65 67 68 69 71 73 74 76 77 79 80 80 80 79 78 78 78 78 78 78 78 78 78 78 79 79 80 80 81 81 82 83 84 85 86 87 88 89 89 90 91 92 93
105 107 109 109 109 107 106 104 102 100 98 96 94 92 91 89 86 82 80 78 76 74 72 70 67 63 62 63 65 66 68 69 69 69 69 68 68 67 67 67 67 66 67 68 70 71 73 75 77 78 80 80 80 80 79 79 78 78 78 78 78 78 78 78 79 79 80 80 81 82 82 83 84 85 86 87 89 90 91 92 93 93 94 94 96
107 108 108 108 107 105 102 99 98 96 94 92 91 88 86 84 82 79 76 74 72 70 68 65 62 62 63 64 65 67 69 71 70 70 70 69 68 67 67 67 67 68 69 71 72 74 76 77 79 80 80 81 80 80 80 79 79 78 78 78 79 79 79 80 80 81 81 82 83 84 85 85 86 88 89 91 92 93 94 95 95 96 96 96 97
108 109 108 106 103 100 98 96 94 93 91 89 87 84 82 81 79 76 73 71 69 66 63 60 60 61 63 65 67 69 71 72 72 72 71 70 69 68 68 68 69 70 71 72 74 76 77 79 80 81 81 82 81 81 80 80 79 79 79 79 80 80 81 81 82 83 83 84 85 86 88 89 90 91 93 94 95 96 96 97 97 97 98 98 99
109 107 105 101 98 96 94 93 91 90 88 86 83 81 80 78 75 73 72 69 66 62 58 57 60 63 65 68 70 71 73 74 74 74 73 71 70 70 69 70 71 72 73 74 76 78 80 81 82 83 83 83 82 82 81 81 80 80 80 81 81 82 83 83 84 85 86 87 88 90 91 93 94 95 96 97 97 98 99 99 99 99 99 100 100
107 104 100 96 94 92 91 90 88 86 84 83 80 78 77 74 72 71 70 67 62 57 56 58 63 66 69 71 73 74 74 75 75 75 75 73 72 71 71 72 73 74 75 76 79 81 83 84 85 85 84 83 82 82 82 81 81 82 82 83 83 84 85 86 87 88 89 90 91 93 95 96 97 98 98 98 99 100 100 100 101 101 101 101 100
103 99 95 92 90 89 88 86 84 83 81 79 77 76 74 72 71 70 69 63 57 54 57 62 66 69 73 75 75 76 76 75 75 75 75 74 73 73 73 74 75 76 76 78 80 82 84 85 86 85 84 82 82 82 82 82 82 83 84 85 86 87 88 89 90 91 92 93 94 96 97 98 99 99 99 99 100 101 101 101 102 102 102 101 101
97 94 91 89 86 84 83 82 81 80 78 76 74 72 71 71 71 70 66 61 56 57 61 65 69 72 76 77 78 77 76 75 76 76 76 75 74 74 74 75 76 77 78 79 81 82 84 85 85 84 83 82 82 82 83 83 84 85 86 87 88 89 90 91 92 93 94 95 97 98 98 99 99 99 100 100 101 102 102 102 102 102 102 102 101
93 90 87 85 82 81 80 80 79 78 76 73 71 70 69 69 70 68 65 61 59 61 64 68 71 75 78 79 78 77 76 76 77 77 77 76 76 76 76 77 78 79 80 81 83 84 85 85 85 84 83 83 83 83 84 85 86 87 88 89 90 91 93 94 95 96 97 97 98 99 99 100 100 100 101 101 102 102 102 103 103 102 102 101 100
90 88 84 81 79 78 77 77 77 77 75 72 69 68 68 68 69 69 66 62 62 64 67 70 74 77 78 78 77 76 75 76 77 78 77 77 77 77 77 78 79 80 82 83 84 85 86 86 85 84 84 84 84 85 86 87 88 89 90 91 93 94 95 96 97 98 98 99 99 100 100 101 101 101 101 102 102 102 102 103 103 102 101 99 98
88 85 82 79 77 75 75 75 76 76 74 72 70 69 69 69 70 70 68 65 65 67 69 71 74 77 78 77 76 76 76 77 78 78 78 78 78 79 79 80 80 82 83 85 86 86 86 86 86 85 85 85 86 87 88 89 90 91 92 94 95 97 98 99 99 99 100 100 101 102 101 101 101 101 102 102 102 102 102 102 102 101 99 98 96
86 83 80 77 75 73 74 75 75 73 73 73 73 72 71 71 72 71 70 68 69 70 72 72 75 78 79 78 77 76 76 77 78 79 79 79 79 80 80 81 82 83 84 86 87 87 87 86 86 86 87 87 88 90 91 92 93 94 95 96 98 99 100 100 101 101 102 103 103 102 102 101 101 102 102 103 103 102 102 101 100 99 97 95 93
85 83 80 77 74 73 73 74 73 71 71 72 74 75 75 75 75 74 74 73 74 74 74 74 76 79 80 79 78 77 77 78 79 80 80 79 79 80 80 82 83 84 85 86 87 87 87 87 87 88 88 89 90 92 93 94 96 97 97 98 99 100 101 102 103 104 104 104 104 103 102 102 102 103 103 103 102 101 101 99 98 96 94 92 91
85 83 81 78 75 74 73 72 72 72 72 73 75 77 78 78 77 77 77 77 77 77 76 77 78 79 78 77 77 77 77 78 79 80 80 80 80 80 81 82 83 84 85 86 86 87 87 87 88 89 90 91 92 94 95 96 97 97 98 99 100 101 102 103 104 105 105 104 103 103 103 103 103 103 103 102 100 99 98 97 95 93 92 90 88
86 84 83 80 77 76 74 73 73 73 74 75 76 78 79 79 79 79 79 78 78 78 78 78 79 80 79 79 79 79 79 80 81 82 82 82 81 81 82 83 84 85 85 86 86 87 88 89 90 91 92 93 94 96 96 97 97 98 99 100 102 103 104 105 105 105 104 103 103 102 102 103 103 102 101 100 98 97 96 94 93 91 89 87 84
88 86 84 82 80 78 76 75 74 74 74 75 77 78 79 80 80 80 80 80 80 80 80 81 82 82 82 83 82 82 82 82 83 84 84 84 83 83 84 84 85 85 86 87 88 89 90 91 92 93 94 96 96 97 98 99 100 100 101 102 103 105 106 106 105 104 103 102 102 101 102 102 101 100 99 97 96 94 93 92 90 88 86 83 81
89 87 86 84 82 80 78 77 76 75 75 75 76 77 79 80 80 81 82 82 82 83 84 85 86 86 86 86 85 84 84 85 85 86 86 85 85 85 85 86 86 87 88 89 90 91 92 93 94 95 97 97 98 99 100 101 101 102 103 104 105 105 105 104 103 102 102 101 101 101 100 100 99 98 96 94 92 91 90 88 87 85 82 80 78
90 88 87 85 84 82 81 79 78 77 76 76 77 78 80 81 82 82 83 84 85 86 87 87 87 87 88 88 87 87 86 86 86 86 86 86 86 87 87 87 88 88 89 90 91 92 93 95 96 97 98 99 100 101 102 103 103 104 105 106 106 105 103 102 101 101 101 101 100 99 98 97 95 94 93 91 90 88 86 85 83 81 79 77 74
92 91 89 88 87 85 84 83 82 81 81 80 81 81 82 83 84 85 85 86 87 87 88 87 87 86 86 86 87 86 86 86 87 87 87 87 88 88 88 88 89 89 90 92 93 94 96 97 98 99 100 101 102 103 104 105 106 107 107 106 104 103 101 100 100 100 100 99 98 97 95 94 92 91 90 88 86 85 83 81 79 78 75 73 71
94 92 91 90 88 88 87 86 85 84 84 83 83 83 83 84 85 86 87 87 88 88 87 87 86 85 85 85 85 86 86 86 87 87 87 87 88 88 88 89 90 91 93 94 95 96 97 98 99 100 101 102 104 105 106 107 108 107 106 104 103 102 101 100 100 99 98 97 95 94 92 91 90 88 87 85 83 81 79 78 76 74 72 70 68
94 93 92 91 90 89 89 88 87 86 85 85 85 85 84 85 85 85 86 86 86 86 86 85 85 84 84 84 84 84 85 85 86 86 86 87 88 88 90 91 92 93 94 95 97 98 99 100 101 102 103 105 106 107 108 109 108 106 104 103 102 101 100 99 98 97 95 93 91 90 89 88 87 85 84 82 80 78 76 75 73 71 69 67 65
95 94 93 93 92 91 90 89 88 87 86 86 86 85 85 85 85 85 85 85 84 84 84 84 83 83 82 82 83 83 84 85 85 86 87 88 89 90 92 93 94 96 97 98 99 101 102 102 103 104 105 106 107 108 109 108 106 104 103 102 101 100 99 97 95 93 91 89 88 88 87 85 84 82 80 78 76 74 73 71 69 67 65 63 61
Wind_Direction
360 360 1 1 1 0 360 359 359 359 358 357 356 354 352 348 343 337 332 326 320 315 310 306 302 298 294 290 286 283 281 279 278 277 275 274 273 272 270 269 268 267 266 265 264 264 263 262 261 261 260 259 259 259 259 259 259 260 260 260 261 261 261 262 263 263 264 264 264 264 265 265 266 266 267 267 268 268 269 269 270 270 271 271 272
357 357 357 358 358 358 357 356 356 355 355 354 353 353 351 350 347 343 338 332 326 320 315 310 306 302 298 295 292 289 286 284 282 279 278 276 275 274 273 272 272 271 270 270 269 268 267 266 265 265 264 263 262 261 261 261 260 261 261 261 261 262 262 263 263 264 265 265 265 266 266 267 267 267 268 268 269 269 270 270 271 271 272 272 272
354 355 355 355 355 355 356 355 354 353 353 352 352 351 350 349 347 345 343 338 333 328 322 316 311 306 302 299 296 293 291 288 286 284 282 280 278 277 275 274 273 273 273 273 272 272 271 270 270 269 268 267 266 265 265 264 263 263 263 263 263 263 263 264 264 265 265 266 267 267 268 268 268 269 269 269 270 270 271 271 271 272 272 272 273
351 352 352 352 352 353 354 354 353 353 352 351 350 349 348 347 346 345 343 341 338 334 329 323 318 312 308 303 300 298 295 293 290 288 286 284 282 280 278 276 275 274 274 273 274 274 273 273 272 272 272 271 270 269 268 268 267 267 266 266 266 266 266 266 266 266 267 267 268 268 269 269 270 270 270 270 271 271 272 272 272 272 273 273 273
348 349 350 350 350 350 351 352 352 352 351 350 349 348 347 345 343 342 341 340 338 335 332 328 323 318 314 309 306 302 300 298 296 294 292 289 287 285 283 281 279 277 276 275 275 275 275 275 274 274 274 273 273 272 272 271 270 270 270 269 269 269 269 269 269 269 269 269 270 270 271 271 271 272 272 272 273 273 273 274 274 274 274 274 275
345 345 346 347 348 349 349 350 350 350 349 349 349 348 347 345 342 340 339 337 336 334 332 329 326 322 318 314 311 308 305 302 300 298 296 295 293 292 290 287 285 283 281 280 279 278 278 278 278 277 276 276 275 275 274 273 272 272 272 271 271 271 271 271 271 272 272 272 272 272 272 273 273 274 274 275 275 275 275 276 276 276 276 276 276
342 343 343 345 346 347 348 347 347 348 347 347 348 348 347 345 343 340 337 336 334 332 330 328 325 322 319 316 314 311 308 306 304 302 299 297 296 295 294 292 290 288 286 285 284 283 283 282 282 282 281 281 280 279 278 277 276 275 274 273 273 272 272 272 273 273 273 273 273 273 273 274 274 274 275 275 276 276 276 276 276 277 277 277 277
340 340 341 342 344 346 346 346 347 347 347 347 347 347 347 345 343 340 338 336 333 331 329 327 324 321 318 316 314 312 310 308 306 304 302 300 299 298 296 295 293 291 290 289 288 287 286 286 285 285 284 284 284 283 282 281 280 280 278 277 276 275 275 274 274 274 274 274 274 274 274 274 274 274 275 275 276 276 276 276 276 277 277 277 277
339 339 340 341 343 344 345 345 346 347 347 346 347 347 347 345 343 341 339 336 334 332 329 326 323 320 318 316 313 311 309 308 306 305 303 302 301 300 299 297 295 294 292 291 290 290 289 289 289 288 287 287 287 286 285 284 283 282 281 281 280 279 278 278 277 276 276 275 275 275 275 275 275 275 275 276 276 276 276 277 277 277 277 277 277
338 339 339 340 342 343 343 344 345 346 346 346 346 346 346 346 345 343 340 337 335 333 330 327 323 320 318 316 313 311 308 307 306 305 303 302 302 301 300 298 297 296 295 294 293 292 292 293 292 292 292 292 292 291 290 289 287 286 284 284 283 282 281 280 279 279 278 278 277 277 277 276 276 276 277 277 277 277 277 278 278 278 278 278 278
338 339 339 340 341 342 343 344 344 345 346 346 346 345 346 346 345 344 341 338 336 334 331 327 324 321 319 316 314 311 308 307 305 304 303 302 302 301 300 299 298 297 296 296 295 295 295 295 295 295 295 295 296 295 294 293 291 290 289 288 287 286 285 284 283 282 281 280 279 279 278 278 278 278 278 278 278 278 279 279 279 279 280 280 280
338 338 338 339 340 341 343 344 343 344 345 345 345 345 345 344 344 344 341 339 337 334 331 328 324 322 320 317 315 313 310 308 307 305 303 303 302 301 300 298 298 298 297 297 297 297 297 297 297 297 298 298 298 298 297 296 295 293 292 292 291 291 290 288 287 286 285 283 282 281 280 280 280 279 279 279 279 280 280 280 281 281 281 281 281
337 339 339 338 339 340 342 343 343 344 344 344 344 344 343 343 343 343 341 339 337 335 331 328 325 322 320 319 317 314 312 311 309 307 306 304 303 302 300 298 298 297 297 297 298 298 299 299 299 299 300 300 300 299 299 298 297 296 295 295 295 294 293 292 291 290 289 287 286 285 284 283 282 281 280 280 280 281 281 281 281 282 282 282 282
338 339 338 337 338 339 341 343 343 343 343 343 343 342 342 342 342 342 341 339 337 334 331 328 325 322 321 320 317 314 312 311 310 309 308 306 305 303 300 298 298 297 297 298 298 299 300 300 299 300 301 301 300 300 299 298 298 297 297 297 297 296 295 294 293 292 291 290 289 288 287 286 285 284 283 282 282 282 282 282 282 282 282 283 283
337 337 336 337 338 339 341 342 342 342 342 342 342 342 341 340 340 341 341 339 337 334 331 329 326 323 322 320 317 314 311 310 310 309 308 307 306 303 301 300 299 298 298 298 298 299 299 299 300 301 301 300 300 300 299 299 298 298 299 299 298 298 297 296 295 294 293 291 291 290 289 288 288 287 286 285 285 284 284 284 284 284 284 284 284
337 336 336 337 338 340 341 342 342 341 341 341 341 340 340 339 340 340 340 338 336 334 332 330 328 325 322 320 317 314 311 309 309 309 308 308 306 304 302 301 300 299 299 299 300 300 300 300 300 301 301 300 300 300 300 300 300 300 300 300 300 300 299 297 296 295 294 292 292 291 290 290 289 289 288 288 287 287 287 287 286 286 286 286 286
336 336 335 336 337 338 340 341 341 340 340 340 340 339 339 339 339 339 338 337 336 334 333 332 329 326 324 321 318 315 311 309 309 309 308 308 307 305 303 302 301 301 300 301 301 301 300 301 301 301 300 300 300 301 301 301 301 302 302 302 302 301 300 299 298 296 295 294 293 292 291 291 290 290 289 289 289 288 288 288 288 287 287 287 287
336 336 335 334 336 337 338 339 340 340 339 339 338 338 338 338 337 337 337 337 336 335 334 333 330 328 325 322 319 316 312 310 310 309 308 308 307 305 304 303 303 302 302 301 301 301 301 301 300 300 300 300 301 301 302 302 303 303 304 304 303 303 302 301 300 298 297 296 294 293 293 292 292 291 291 290 290 290 289 289 289 288 288 288 287
336 335 334 334 335 336 337 338 338 338 337 337 337 336 336 336 337 336 336 336 335 334 334 333 331 328 326 323 320 316 313 311 310 310 309 308 307 306 305 304 303 303 302 302 301 301 300 300 299 299 300 301 302 302 303 304 305 305 305 305 305 304 304 303 302 300 299 298 297 295 295 294 293 293 292 292 291 291 291 290 289 289 289 288 288
334 333 333 334 334 335 336 336 336 335 335 336 335 335 335 335 336 335 335 335 334 333 333 332 331 328 326 324 320 317 315 313 312 311 309 308 307 307 306 305 304 303 302 301 300 299 299 299 299 299 300 302 302 303 304 305 306 306 306 306 306 306 305 304 303 301 300 299 298 297 297 296 295 294 294 293 293 293 292 291 291 290 290 290 289
333 333 333 333 334 334 334 334 334 334 334 334 334 333 333 334 334 334 334 334 333 331 331 330 329 328 327 325 321 319 317 315 313 312 310 309 308 308 307 305 303 302 301 300 299 298 298 298 299 300 302 303 303 304 305 306 307 307 307 307 306 306 305 304 303 302 302 301 300 299 298 297 296 296 296 295 295 294 294 294 294 293 293 292 292
333 333 333 333 333 333 333 333 333 333 333 333 332 331 331 332 332 332 332 331 330 329 329 329 328 328 327 325 322 320 318 317 314 311 309 308 307 307 306 304 302 301 300 299 298 298 299 300 301 303 304 304 304 305 306 306 307 307 307 307 307 306 305 304 304 303 303 302 301 300 300 299 298 298 297 297 296 295 295 295 295 294 294 294 293
333 332 332 332 332 332 332 332 331 331 332 332 331 329 329 329 329 329 328 328 328 327 327 327 327 327 327 324 321 319 317 314 312 309 307 306 306 305 304 302 301 301 300 300 300 301 302 303 304 304 304 304 305 305 306 307 307 307 307 307 307 307 306 305 305 304 304 303 302 302 301 300 299 299 298 297 297 296 296 295 295 295 294 294 293
332 331 331 331 332 332 331 331 330 330 330 330 329 327 326 327 326 325 325 325 325 325 325 326 326 325 324 321 317 316 314 312 310 307 305 305 305 305 305 304 304 304 304 303 303 304 304 304 304 304 305 305 305 305 306 306 306 307 307 307 307 307 306 306 306 305 305 304 303 302 301 300 300 299 298 298 297 296 296 296 295 295 294 294 293
332 331 331 331 331 331 330 330 329 329 329 328 327 325 324 324 323 322 322 323 323 323 323 324 323 323 321 317 314 313 312 310 308 307 306 308 309 309 308 307 307 307 307 306 305 304 304 304 305 305 305 305 305 305 306 305 306 306 306 307 307 307 307 307 306 306 305 304 303 302 302 301 300 299 299 298 298 297 296 296 296 295 294 294 293
332 331 330 330 330 329 329 328 328 328 327 326 324 323 322 321 320 320 320 321 322 321 321 321 321 320 318 314 312 312 312 312 312 312 313 313 312 311 310 309 308 308 307 306 305 305 305 305 305 306 306 306 306 306 306 306 306 306 307 307 307 307 306 306 305 305 304 304 303 302 302 301 301 300 299 299 298 297 297 296 296 295 295 295 295
331 330 329 329 328 328 327 327 327 326 324 322 321 319 318 317 317 317 319 320 320 319 319 319 319 317 314 311 311 313 314 315 316 316 316 315 313 312 311 310 310 309 307 306 306 306 306 306 306 307 307 307 308 308 307 307 307 307 306 306 305 305 305 304 304 304 303 303 302 302 302 301 301 300 300 299 298 298 297 296 296 296 296 296 297
330 329 328 327 327 326 326 326 324 322 320 318 317 315 314 314 315 317 317 318 318 317 317 317 317 315 312 310 312 315 316 316 316 316 315 314 313 313 312 311 310 309 307 307 307 307 307 308 308 308 309 309 309 309 308 307 306 305 304 304 303 303 303 303 303 303 303 302 302 302 302 302 301 301 301 300 299 299 298 298 298 298 298 298 298
328 327 326 326 325 325 324 323 321 319 316 314 313 312 312 314 316 316 316 316 317 316 316 316 315 313 310 310 314 316 317 317 317 316 315 314 313 313 312 311 310 308 307 307 307 307 308 308 309 310 310 310 309 308 307 306 305 304 303 303 303 303 303 303 303 303 303 303 303 303 303 303 303 303 302 302 302 301 301 301 300 300 299 299 299
327 326 325 324 323 322 321 319 317 315 313 312 312 312 313 315 315 316 316 316 316 316 315 314 312 311 309 311 315 317 317 317 316 314 313 313 313 313 312 310 309 308 307 307 308 308 309 310 311 311 311 310 309 308 307 306 305 305 305 304 304 304 304 304 304 304 304 304 304 305 305 305 305 305 304 304 304 304 304 303 302 301 301 300 300
325 324 323 322 320 319 318 316 314 312 312 312 313 314 314 315 315 316 316 315 315 314 313 310 308 308 309 311 314 316 316 315 314 313 313 312 312 312 311 310 309 308 308 308 309 309 311 311 311 311 310 310 309 308 308 307 307 307 306 306 306 305 305 305 305 305 306 306 306 306 306 306 306 306 306 306 306 305 305 304 303 302 301 301 300
323 322 320 319 318 316 315 314 313 313 313 313 314 315 315 315 315 315 315 314 313 312 309 307 306 306 308 310 313 315 315 314 314 313 313 312 312 312 312 310 309 308 308 309 310 311 311 311 311 311 310 310 310 309 309 309 308 308 308 307 307 307 307 307 307 307 307 307 307 307 308 308 308 307 307 306 306 305 305 304 303 302 302 301 300
322 320 319 317 316 315 314 314 314 314 314 314 315 316 316 315 315 315 315 315 313 310 307 305 305 307 309 311 313 314 314 315 314 313 313 313 313 313 312 311 309 309 309 310 311 311 311 311 311 311 312 311 311 311 310 310 309 309 308 308 308 308 307 307 307 308 308 308 308 309 309 309 308 308 307 307 306 305 304 304 303 302 302 301 300
320 319 317 316 315 314 314 314 314 314 314 315 316 316 315 315 315 316 316 315 313 310 306 305 305 308 311 313 314 314 315 315 314 313 313 313 313 313 312 311 310 310 310 311 311 312 312 313 313 313 313 312 312 311 310 310 309 309 309 308 308 308 308 308 308 309 309 309 310 309 309 309 308 307 307 306 306 305 304 303 303 302 302 301 300
319 318 317 316 315 314 314 314 314 314 314 316 316 316 315 315 316 316 317 315 313 310 306 303 304 308 312 314 315 315 315 314 313 313 313 313 313 313 312 311 310 311 311 311 312 313 314 314 314 313 312 312 311 311 310 310 310 309 309 308 308 308 309 309 309 310 310 310 310 309 308 308 307 307 306 306 305 304 304 303 303 302 302 301 300
318 317 316 316 315 314 314 314 314 314 315 316 316 315 315 316 317 318 318 317 313 308 303 301 304 308 311 313 314 314 314 313 312 312 312 312 313 313 312 311 310 311 311 312 312 313 313 312 312 311 311 311 311 311 311 310 310 309 309 309 309 309 309 310 310 310 309 309 309 308 307 307 306 306 306 306 305 304 303 303 303 302 302 301 301
317 317 316 316 315 314 313 313 313 314 315 316 315 315 315 316 318 319 319 316 311 305 302 302 305 307 310 312 313 313 312 311 310 311 312 312 312 312 311 311 310 310 310 311 311 310 310 310 310 310 310 311 311 311 311 310 310 310 310 309 309 309 309 309 309 308 308 308 307 307 307 306 306 306 306 305 305 304 303 303 303 302 302 302 302
317 317 317 316 315 315 314 313 313 314 315 315 315 315 315 316 318 319 319 315 310 306 305 304 305 307 309 311 312 312 311 310 310 311 312 312 312 312 311 310 309 309 309 309 309 309 309 309 309 309 310 310 311 311 310 310 310 309 309 309 309 308 308 308 308 308 308 308 307 307 307 307 307 306 306 305 304 304 303 303 303 303 303 303 302
318 318 318 318 317 316 314 313 313 314 314 315 315 315 316 316 317 318 318 315 310 308 307 306 306 308 310 312 312 311 310 310 310 311 312 312 312 312 311 310 308 307 307 307 307 307 308 308 308 309 310 310 311 310 310 309 309 309 308 308 308 308 308 308 308 308 308 308 308 308 308 307 307 306 305 305 304 304 304 304 303 303 303 303 303
320 320 320 319 318 316 314 312 313 314 315 316 317 317 316 316 316 318 318 315 312 309 308 307 308 310 312 312 312 311 310 310 310 310 311 312 312 312 310 309 307 306 305 305 305 306 307 307 308 309 310 310 311 311 310 310 309 309 309 308 308 308 308 308 308 309 309 309 309 308 307 307 306 306 305 305 305 304 304 304 304 304 304 304 304
321 321 321 320 317 315 313 313 315 316 316 316 317 317 317 316 317 317 317 315 313 311 310 310 311 313 314 313 312 311 311 310 310 310 311 311 311 310 309 308 306 305 304 304 304 305 306 307 308 309 310 311 311 311 311 311 310 310 309 309 308 308 308 308 309 310 310 309 309 308 308 307 307 306 306 305 305 305 305 305 305 304 304 304 304
322 322 321 320 318 316 315 315 316 316 315 314 315 316 317 317 317 317 317 315 314 312 311 312 313 314 314 313 312 312 311 311 310 310 310 310 309 309 308 306 305 304 303 303 304 306 307 308 309 310 310 311 311 311 311 311 310 310 309 308 308 308 309 309 310 310 310 309 309 308 308 307 307 306 306 305 305 305 305 305 305 305 304 304 304
323 322 322 321 319 318 317 316 316 315 315 314 314 315 316 317 317 317 316 315 313 313 312 312 312 312 312 312 312 312 311 310 309 309 309 309 309 308 307 305 304 303 304 304 306 307 308 309 310 310 311 311 312 312 311 310 309 309 308 308 309 309 310 310 310 310 309 309 308 308 308 307 307 306 306 306 305 305 305 305 305 305 305 305 305
323 322 322 322 320 319 318 316 316 315 315 314 314 315 316 317 317 316 315 314 313 312 312 312 312 312 313 313 313 313 312 311 310 309 309 309 308 307 306 305 305 305 306 307 308 309 310 310 311 311 312 312 312 312 311 310 310 310 310 310 310 310 310 310 310 309 308 308 307 307 307 307 306 306 306 306 306 305 305 305 305 305 305 305 305
323 323 322 322 320 319 318 317 316 315 314 314 315 316 316 316 315 315 315 314 313 313 314 314 315 315 315 315 314 314 313 311 310 310 310 309 309 308 308 308 308 308 309 309 310 310 311 311 311 312 312 312 312 312 311 311 311 311 311 311 311 311 310 310 309 308 307 307 307 307 307 306 306 306 306 306 305 305 305 305 305 305 305 305 306
323 322 321 321 319 318 317 316 315 314 314 314 314 314 314 315 315 316 316 316 316 317 317 317 316 316 315 314 314 314 313 312 311 311 310 310 310 310 310 310 311 311 311 310 311 311 311 312 313 313 313 312 312 311 311 311 311 311 311 312 312 311 310 309 308 307 307 307 307 307 307 306 306 306 306 305 305 305 305 305 305 305 306 306 306
322 321 320 320 319 318 317 316 315 315 315 315 315 315 315 316 316 317 317 318 319 319 318 317 316 315 314 313 314 313 313 312 311 311 311 312 312 312 312 312 311 311 311 311 312 312 313 313 313 312 312 312 311 311 311 312 312 312 312 312 311 310 309 308 308 307 307 307 307 307 306 306 306 306 305 305 305 305 305 305 305 305 306 306 306
321 320 320 319 319 318 317 317 317 317 317 317 317 317 317 317 317 318 319 319 319 318 317 316 315 313 313 313 313 313 313 312 312 313 313 313 313 312 312 311 311 312 312 313 314 314 313 313 312 311 311 311 312 312 313 313 313 313 313 312 311 310 309 309 308 308 307 307 307 307 306 306 306 306 305 305 305 305 305 305 305 306 306 307 307
320 320 319 319 318 318 317 317 318 318 318 317 317 317 317 317 317 318 318 318 317 317 316 315 314 314 313 313 313 313 313 313 313 313 313 312 312 312 312 312 313 314 314 314 313 313 312 312 311 311 312 312 313 313 313 313 313 313 312 311 311 310 310 309 308 308 307 307 307 307 307 306 306 306 305 305 305 305 306 306 306 306 307 307 307
319 319 318 318 318 318 317 317 317 317 316 316 316 316 316 316 316 316 316 315 315 315 315 315 314 314 313 313 312 312 313 313 313 313 312 312 312 313 314 314 314 314 313 313 312 311 311 311 311 312 313 313 313 314 313 313 313 312 312 311 311 310 309 309 308 308 307 307 307 307 307 307 306 306 305 305 306 306 306 306 306 307 307 307 307
319 318 318 317 317 316 316 315 315 315 315 315 315 315 315 315 315 314 314 314 314 314 314 314 313 312 312 312 313 313 314 313 313 313 313 313 314 315 315 314 313 312 312 311 311 311 311 312 312 313 313 314 313 313 313 312 312 312 312 311 310 310 309 308 308 308 308 308 308 307 307 306 306 306 305 306 306 306 306 306 306 307 307 306 306
Height
10536 10532 10529 10526 10523 10519 10516 10513 10510 10507 10504 10501 10498 10496 10493 10490 10487 10484 10480 10477 10474 10470 10467 10464 10460 10457 10453 10450 10446 10442 10438 10435 10431 10427 10424 10421 10418 10415 10413 10410 10408 10405 10403 10401 10399 10397 10395 10393 10391 10389 10386 10384 10382 10380 10378 10375 10373 10370 10368 10365 10363 10361 10358 10356 10354 10350 10345 10343 10343 10341 10340 10339 10336 10333 10332 10331 10328 10326 10325 10323 10321 10319 10317 10315 10313
10534 10530 10526 10523 10520 10516 10512 10509 10505 10502 10499 10496 10493 10490 10487 10484 10481 10478 10475 10471 10468 10465 10461 10458 10454 10450 10447 10443 10440 10436 10432 10428 10424 10420 10417 10413 10410 10407 10404 10401 10398 10395 10393 10390 10387 10385 10383 10381 10378 10375 10372 10370 10368 10366 10364 10361 10358 10355 10352 10350 10347 10344 10342 10339 10336 10333 10329 10324 10322 10321 10321 10320 10317 10313 10312 10311 10309 10306 10304 10302 10300 10299 10296 10294 10292
10532 10528 10524 10520 10516 10513 10509 10505 10501 10497 10494 10490 10487 10484 10481 10478 10475 10472 10468 10465 10462 10458 10454 10451 10447 10443 10439 10436 10432 10429 10425 10421 10417 10413 10409 10406 10402 10399 10396 10392 10389 10386 10383 10380 10377 10374 10371 10369 10367 10363 10359 10357 10355 10353 10350 10347 10344 10341 10338 10335 10332 10329 10326 10323 10320 10318 10315 10310 10305 10302 10301 10299 10297 10293 10290 10290 10289 10286 10284 10282 10280 10278 10275 10273 10270
10528 10525 10521 10517 10513 10509 10506 10501 10497 10493 10489 10485 10481 10478 10474 10471 10468 10465 10461 10458 10454 10451 10447 10443 10440 10436 10432 10428 10424 10420 10416 10413 10409 10405 10401 10397 10394 10390 10387 10384 10381 10377 10374 10371 10367 10364 10361 10359 10356 10352 10348 10344 10342 10340 10337 10334 10330 10327 10323 10320 10317 10314 10310 10307 10304 10302 10300 10297 10292 10287 10284 10280 10276 10273 10271 10270 10270 10266 10264 10262 10261 10258 10255 10252 10250
10525 10522 10518 10514 10509 10505 10501 10497 10493 10488 10484 10480 10476 10472 10468 10464 10461 10457 10454 10451 10447 10443 10439 10435 10431 10427 10423 10419 10415 10411 10408 10404 10400 10396 10391 10388 10384 10381 10377 10374 10371 10368 10365 10362 10358 10354 10351 10348 10345 10342 10338 10334 10330 10328 10325 10321 10318 10314 10310 10306 10303 10299 10295 10292 10289 10287 10284 10282 10278 10274 10269 10264 10260 10256 10253 10252 10251 10248 10246 10244 10241 10238 10235 10232 10230
10522 10518 10514 10511 10506 10502 10497 10493 10488 10484 10479 10475 10471 10467 10463 10459 10455 10451 10447 10443 10439 10435 10431 10427 10423 10419 10415 10410 10406 10402 10399 10395 10391 10387 10382 10378 10374 10370 10367 10363 10361 10358 10355 10352 10348 10345 10341 10337 10334 10332 10328 10324 10321 10317 10314 10310 10307 10302 10298 10294 10290 10287 10282 10278 10275 10272 10270 10267 10264 10260 10256 10252 10247 10242 10238 10236 10234 10232 10230 10227 10224 10220 10217 10214 10211
10519 10514 10510 10507 10503 10499 10494 10489 10484 10479 10474 10469 10465 10461 10457 10453 10449 10444 10440 10435 10431 10427 10423 10419 10414 10410 10406 10401 10397 10393 10389 10385 10382 10378 10374 10369 10365 10361 10357 10353 10350 10346 10344 10341 10338 10335 10331 10327 10324 10321 10318 10314 10310 10307 10303 10300 10296 10291 10287 10283 10280 10275 10271 10267 10263 10260 10257 10254 10250 10246 10243 10239 10235 10230 10226 10223 10221 10218 10216 10213 10209 10204 10201 10199 10195
10516 10511 10506 10502 10499 10495 10491 10485 10479 10474 10468 10463 10458 10454 10450 10446 10442 10437 10433 10428 10423 10419 10415 10411 10407 10402 10398 10393 10389 10384 10380 10376 10372 10369 10364 10360 10356 10352 10348 10344 10340 10336 10333 10331 10328 10324 10321 10317 10313 10310 10307 10304 10300 10296 10293 10289 10285 10280 10275 10271 10268 10264 10260 10256 10252 10248 10244 10241 10237 10234 10231 10227 10222 10219 10215 10212 10209 10206 10202 10198 10195 10191 10188 10185 10181
10513 10508 10502 10498 10494 10490 10486 10482 10476 10470 10464 10458 10453 10448 10443 10439 10434 10430 10425 10420 10415 10411 10407 10403 10399 10394 10389 10385 10381 10376 10371 10367 10363 10360 10355 10351 10346 10343 10338 10334 10331 10327 10323 10321 10318 10314 10311 10307 10303 10300 10297 10294 10290 10286 10282 10278 10275 10270 10265 10260 10256 10252 10248 10244 10240 10236 10232 10229 10225 10221 10218 10214 10210 10207 10204 10201 10198 10195 10189 10185 10182 10179 10175 10172 10167
10510 10504 10499 10494 10490 10485 10481 10476 10471 10466 10460 10453 10448 10443 10438 10433 10428 10423 10417 10412 10407 10402 10398 10394 10389 10385 10381 10376 10372 10368 10363 10359 10355 10351 10346 10342 10337 10333 10329 10325 10321 10317 10313 10310 10307 10304 10301 10297 10292 10289 10286 10282 10279 10275 10271 10267 10263 10258 10254 10249 10245 10241 10237 10233 10229 10224 10220 10217 10213 10208 10205 10201 10198 10195 10192 10189 10186 10183 10178 10174 10171 10166 10162 10159 10155
10506 10501 10495 10490 10485 10481 10475 10470 10466 10461 10455 10449 10443 10438 10432 10427 10423 10417 10411 10405 10399 10394 10389 10384 10379 10375 10371 10366 10362 10358 10354 10350 10347 10343 10338 10333 10329 10324 10320 10315 10311 10307 10304 10300 10297 10294 10291 10287 10282 10278 10275 10272 10268 10264 10260 10256 10251 10247 10242 10238 10233 10229 10225 10221 10217 10213 10209 10205 10201 10196 10192 10188 10185 10183 10180 10176 10173 10170 10166 10163 10159 10154 10150 10147 10144
10502 10496 10491 10486 10481 10476 10470 10464 10459 10455 10450 10444 10438 10432 10427 10422 10417 10412 10406 10399 10393 10388 10382 10376 10370 10365 10361 10356 10351 10347 10343 10340 10338 10333 10329 10325 10320 10316 10311 10305 10301 10297 10294 10290 10287 10284 10280 10277 10272 10268 10264 10261 10257 10253 10249 10245 10240 10236 10231 10226 10221 10216 10212 10209 10205 10201 10197 10192 10189 10184 10180 10177 10174 10170 10167 10163 10160 10157 10155 10151 10146 10142 10138 10135 10132
10497 10491 10485 10481 10477 10472 10466 10459 10452 10448 10443 10438 10433 10427 10421 10416 10411 10406 10400 10393 10388 10382 10376 10370 10363 10358 10352 10347 10342 10336 10331 10328 10326 10323 10319 10315 10311 10307 10302 10297 10292 10288 10284 10280 10277 10274 10270 10267 10262 10258 10254 10251 10247 10243 10239 10234 10229 10225 10221 10216 10211 10205 10200 10196 10192 10189 10185 10180 10176 10172 10168 10165 10161 10158 10154 10151 10148 10145 10142 10139 10135 10131 10127 10124 10120
10491 10486 10479 10475 10471 10466 10460 10454 10447 10441 10436 10431 10426 10420 10415 10410 10405 10399 10393 10386 10381 10375 10369 10363 10357 10351 10345 10340 10334 10327 10321 10318 10315 10312 10308 10305 10301 10298 10293 10288 10284 10279 10275 10271 10268 10264 10261 10257 10253 10249 10245 10241 10236 10233 10229 10225 10220 10216 10211 10207 10201 10196 10190 10185 10181 10177 10173 10169 10164 10160 10156 10152 10148 10144 10141 10138 10136 10133 10129 10127 10123 10120 10116 10113 10108
10485 10479 10474 10468 10464 10459 10454 10448 10441 10434 10429 10424 10418 10412 10407 10402 10398 10392 10386 10379 10373 10367 10361 10356 10349 10343 10338 10332 10326 10319 10313 10308 10305 10302 10298 10295 10292 10288 10284 10280 10276 10271 10266 10262 10259 10256 10252 10247 10244 10240 10235 10231 10226 10223 10219 10215 10211 10206 10201 10197 10192 10186 10181 10175 10171 10167 10162 10157 10153 10149 10144 10140 10135 10132 10128 10125 10123 10119 10116 10114 10110 10107 10104 10101 10096
10479 10473 10467 10461 10456 10452 10447 10442 10435 10428 10422 10416 10411 10405 10400 10394 10388 10384 10378 10372 10366 10359 10353 10347 10341 10334 10329 10323 10318 10311 10304 10299 10296 10292 10288 10286 10282 10279 10275 10271 10267 10262 10257 10253 10250 10247 10242 10238 10235 10231 10226 10221 10216 10213 10209 10205 10201 10196 10191 10187 10182 10177 10171 10166 10161 10156 10151 10147 10143 10138 10133 10128 10124 10120 10116 10113 10110 10106 10103 10101 10096 10093 10091 10088 10084
10474 10467 10459 10453 10448 10444 10439 10435 10428 10421 10415 10409 10403 10397 10391 10386 10380 10375 10370 10364 10357 10351 10344 10338 10331 10325 10319 10313 10308 10302 10295 10289 10286 10283 10279 10276 10273 10269 10266 10262 10258 10254 10249 10245 10241 10237 10233 10228 10225 10222 10217 10211 10207 10203 10199 10195 10191 10186 10181 10177 10172 10166 10161 10156 10151 10146 10141 10137 10132 10127 10122 10118 10114 10109 10105 10101 10098 10094 10091 10089 10085 10081 10078 10075 10072
10467 10460 10453 10446 10440 10435 10431 10426 10420 10414 10408 10402 10395 10389 10383 10377 10372 10366 10361 10355 10348 10342 10336 10329 10322 10316 10310 10304 10298 10293 10286 10280 10277 10274 10270 10267 10264 10260 10257 10253 10249 10244 10240 10237 10232 10228 10224 10219 10216 10212 10208 10202 10197 10193 10189 10184 10179 10174 10170 10166 10161 10156 10151 10145 10140 10135 10131 10126 10122 10117 10112 10107 10103 10099 10094 10090 10086 10082 10079 10077 10073 10069 10066 10063 10059
10459 10453 10446 10439 10433 10427 10422 10417 10411 10406 10401 10395 10388 10381 10375 10369 10363 10357 10351 10346 10340 10333 10327 10321 10314 10307 10300 10294 10289 10284 10278 10272 10268 10265 10261 10257 10255 10251 10248 10244 10240 10235 10232 10228 10224 10219 10215 10211 10206 10202 10199 10194 10189 10183 10178 10173 10168 10163 10158 10154 10150 10145 10140 10134 10130 10125 10121 10116 10111 10106 10101 10097 10092 10088 10083 10079 10075 10071 10067 10064 10060 10057 10054 10050 10046
10452 10446 10439 10433 10426 10419 10414 10409 10403 10398 10393 10387 10380 10373 10366 10360 10354 10347 10342 10336 10330 10324 10317 10312 10306 10298 10291 10286 10280 10275 10270 10265 10260 10257 10253 10249 10246 10243 10240 10235 10231 10227 10224 10220 10215 10211 10206 10202 10197 10193 10190 10185 10179 10173 10168 10163 10158 10153 10148 10143 10139 10135 10129 10124 10119 10115 10110 10105 10100 10095 10090 10086 10082 10077 10073 10068 10063 10059 10054 10051 10047 10044 10041 10037 10033
10445 10438 10432 10426 10419 10412 10406 10400 10395 10389 10383 10377 10371 10363 10357 10351 10345 10338 10333 10327 10322 10315 10309 10303 10298 10290 10283 10277 10272 10266 10262 10258 10253 10249 10245 10242 10238 10235 10232 10227 10222 10219 10215 10211 10206 10202 10197 10193 10188 10184 10180 10175 10169 10162 10158 10153 10148 10143 10138 10133 10129 10124 10119 10114 10109 10104 10099 10095 10089 10084 10080 10075 10071 10066 10062 10057 10052 10047 10042 10037 10033 10029 10025 10022 10018
10437 10429 10423 10417 10412 10406 10399 10392 10385 10379 10373 10368 10362 10354 10347 10341 10336 10329 10324 10319 10313 10307 10300 10294 10288 10281 10274 10268 10263 10258 10254 10251 10246 10242 10238 10235 10231 10227 10224 10219 10214 10210 10207 10202 10197 10192 10188 10184 10179 10174 10169 10164 10158 10152 10148 10143 10138 10133 10127 10122 10118 10113 10108 10103 10098 10093 10089 10084 10079 10074 10069 10064 10060 10055 10051 10045 10040 10035 10030 10025 10020 10015 10011 10006 10002
10428 10421 10415 10408 10402 10397 10391 10384 10377 10371 10364 10358 10353 10346 10338 10333 10327 10321 10316 10311 10305 10298 10291 10285 10278 10272 10265 10260 10255 10251 10247 10244 10240 10235 10231 10227 10224 10220 10215 10211 10206 10201 10197 10193 10187 10183 10179 10174 10168 10163 10158 10153 10148 10142 10137 10132 10128 10123 10117 10112 10107 10102 10097 10093 10088 10083 10079 10074 10069 10064 10058 10053 10049 10045 10040 10034 10029 10023 10018 10014 10009 10003 9998 9994 9988
10421 10414 10407 10400 10393 10387 10381 10375 10368 10362 10355 10349 10344 10338 10331 10325 10319 10313 10308 10303 10297 10289 10282 10276 10270 10264 10259 10253 10248 10244 10240 10237 10233 10228 10224 10220 10216 10211 10206 10201 10197 10192 10188 10183 10178 10173 10169 10164 10158 10153 10148 10143 10137 10132 10127 10122 10117 10113 10108 10102 10097 10092 10087 10082 10077 10073 10068 10063 10058 10053 10048 10043 10038 10034 10029 10024 10018 10013 10007 10003 9998 9991 9986 9982 9976
10412 10405 10397 10390 10384 10378 10371 10365 10358 10352 10346 10341 10336 10330 10323 10317 10312 10306 10300 10295 10288 10281 10274 10268 10263 10257 10252 10247 10241 10236 10233 10229 10224 10220 10216 10211 10207 10202 10197 10192 10187 10183 10178 10173 10168 10164 10159 10154 10149 10144 10138 10133 10128 10123 10118 10112 10107 10102 10098 10092 10087 10082 10076 10072 10067 10062 10058 10053 10047 10042 10037 10032 10028 10022 10017 10012 10007 10001 9996 9992 9986 9979 9973 9969 9964
10401 10394 10387 10381 10374 10369 10363 10356 10348 10341 10336 10331 10327 10321 10315 10309 10304 10298 10292 10286 10279 10272 10265 10260 10255 10250 10245 10240 10235 10229 10224 10219 10214 10210 10206 10202 10197 10192 10188 10183 10178 10173 10169 10164 10159 10154 10150 10144 10139 10134 10129 10124 10119 10113 10108 10102 10097 10092 10087 10081 10076 10071 10066 10061 10057 10052 10047 10042 10037 10032 10026 10021 10017 10011 10006 10001 9995 9989 9984 9980 9975 9968 9961 9956 9950
10392 10385 10377 10371 10365 10359 10353 10346 10339 10332 10327 10322 10317 10312 10306 10301 10296 10290 10283 10277 10271 10264 10257 10252 10247 10243 10238 10233 10227 10221 10215 10210 10205 10200 10196 10192 10187 10183 10178 10173 10168 10163 10159 10154 10150 10145 10140 10135 10130 10124 10119 10114 10108 10103 10097 10092 10086 10081 10076 10071 10066 10061 10056 10051 10046 10041 10036 10031 10026 10021 10015 10010 10005 9999 9993 9988 9982 9975 9971 9967 9962 9955 9949 9943 9937
10382 10375 10368 10361 10354 10348 10342 10336 10330 10324 10319 10313 10308 10303 10296 10292 10287 10280 10273 10268 10262 10255 10249 10243 10238 10234 10229 10224 10219 10214 10207 10201 10196 10191 10187 10182 10178 10173 10168 10163 10158 10153 10149 10145 10140 10135 10130 10125 10120 10114 10109 10104 10098 10092 10086 10081 10076 10071 10065 10060 10055 10050 10045 10040 10035 10030 10025 10020 10015 10009 10004 9998 9992 9986 9981 9975 9968 9962 9956 9952 9947 9941 9935 9929 9923
10373 10365 10357 10351 10344 10337 10331 10325 10320 10316 10310 10304 10298 10292 10286 10280 10275 10269 10262 10257 10252 10245 10239 10234 10228 10224 10220 10215 10210 10206 10200 10194 10188 10183 10178 10173 10169 10164 10159 10154 10149 10145 10140 10135 10130 10125 10120 10115 10109 10104 10099 10093 10088 10082 10076 10071 10066 10060 10055 10049 10044 10039 10034 10029 10024 10019 10014 10008 10003 9997 9992 9986 9979 9973 9967 9960 9953 9947 9941 9936 9931 9925 9919 9913 9907
10364 10355 10347 10340 10333 10327 10321 10316 10311 10306 10300 10294 10288 10281 10275 10269 10264 10258 10251 10245 10240 10235 10229 10224 10219 10215 10211 10206 10201 10196 10192 10187 10181 10176 10170 10165 10160 10155 10150 10145 10140 10136 10131 10126 10121 10116 10110 10105 10099 10094 10088 10082 10077 10072 10066 10060 10055 10049 10044 10038 10033 10027 10023 10018 10013 10008 10002 9996 9990 9984 9979 9973 9967 9960 9953 9946 9939 9932 9925 9919 9914 9909 9904 9898 9891
10355 10347 10339 10331 10324 10318 10313 10307 10300 10294 10288 10282 10276 10270 10263 10257 10252 10247 10241 10234 10229 10225 10220 10216 10211 10207 10203 10198 10192 10188 10184 10179 10174 10168 10162 10157 10152 10147 10142 10137 10132 10127 10122 10116 10111 10106 10100 10095 10089 10084 10078 10073 10067 10061 10055 10049 10043 10038 10032 10027 10021 10016 10011 10006 10001 9995 9990 9984 9978 9972 9966 9960 9953 9947 9939 9932 9925 9918 9911 9904 9898 9893 9888 9881 9874
10346 10338 10330 10322 10315 10308 10302 10295 10288 10281 10275 10269 10264 10259 10252 10246 10240 10236 10231 10226 10220 10215 10211 10206 10202 10197 10193 10189 10185 10180 10175 10170 10165 10159 10153 10148 10143 10138 10133 10128 10122 10117 10113 10107 10101 10096 10090 10085 10080 10074 10068 10063 10057 10050 10044 10038 10032 10027 10021 10015 10010 10004 9999 9994 9989 9983 9978 9972 9966 9959 9952 9946 9940 9933 9926 9919 9912 9906 9898 9890 9884 9878 9872 9865 9858
10335 10327 10318 10311 10303 10295 10288 10282 10275 10269 10263 10258 10252 10247 10241 10235 10230 10225 10221 10216 10211 10206 10201 10196 10192 10188 10184 10180 10177 10172 10166 10160 10154 10149 10144 10138 10133 10128 10123 10118 10113 10108 10103 10097 10091 10086 10081 10075 10070 10064 10058 10051 10045 10039 10033 10027 10022 10016 10010 10004 9998 9993 9987 9982 9976 9971 9965 9959 9953 9945 9939 9932 9925 9919 9912 9905 9898 9891 9883 9876 9869 9863 9856 9850 9843
10322 10313 10305 10298 10291 10283 10275 10269 10264 10257 10251 10246 10242 10236 10231 10226 10220 10215 10210 10205 10200 10196 10191 10187 10183 10178 10174 10171 10167 10162 10156 10150 10144 10138 10133 10129 10123 10118 10113 10109 10103 10098 10093 10087 10081 10076 10070 10064 10058 10052 10046 10040 10034 10028 10022 10017 10011 10005 9999 9993 9987 9981 9975 9970 9964 9958 9952 9946 9939 9932 9925 9918 9911 9904 9898 9892 9884 9876 9868 9861 9854 9848 9841 9835 9828
10309 10300 10292 10285 10279 10271 10264 10258 10253 10247 10241 10236 10232 10226 10221 10216 10212 10206 10201 10196 10191 10186 10182 10177 10173 10169 10165 10161 10156 10151 10146 10140 10134 10128 10123 10118 10113 10108 10103 10098 10093 10088 10083 10077 10071 10064 10058 10052 10046 10040 10035 10029 10023 10017 10011 10006 10000 9994 9988 9982 9976 9969 9963 9957 9951 9945 9939 9932 9926 9919 9912 9905 9897 9891 9884 9877 9869 9860 9853 9846 9839 9832 9826 9819 9813
10295 10287 10280 10273 10267 10260 10253 10247 10242 10237 10232 10227 10222 10216 10211 10206 10202 10197 10192 10187 10183 10178 10173 10169 10164 10160 10155 10151 10146 10142 10136 10131 10125 10120 10114 10109 10104 10098 10093 10088 10083 10077 10072 10066 10060 10054 10048 10042 10036 10030 10025 10018 10012 10006 10000 9995 9989 9983 9977 9971 9964 9958 9951 9945 9939 9933 9927 9920 9914 9907 9899 9892 9884 9877 9870 9863 9854 9845 9837 9830 9823 9817 9810 9803 9798
10284 10276 10269 10263 10257 10250 10243 10237 10232 10227 10223 10219 10213 10207 10202 10197 10192 10188 10183 10178 10175 10170 10165 10160 10156 10151 10146 10141 10136 10132 10127 10122 10116 10110 10104 10098 10093 10088 10083 10077 10072 10066 10061 10056 10050 10045 10039 10033 10027 10021 10015 10009 10002 9996 9990 9984 9978 9972 9966 9959 9953 9946 9940 9933 9927 9921 9915 9909 9902 9894 9886 9878 9870 9863 9855 9847 9838 9830 9822 9814 9807 9801 9794 9787 9781
10273 10266 10260 10253 10247 10240 10233 10227 10221 10217 10214 10209 10204 10199 10194 10189 10184 10179 10175 10170 10166 10162 10157 10152 10147 10142 10137 10132 10127 10122 10117 10112 10106 10100 10094 10088 10083 10077 10072 10066 10061 10056 10050 10045 10040 10035 10030 10024 10018 10012 10005 9999 9993 9986 9980 9974 9968 9961 9955 9949 9942 9935 9929 9922 9916 9910 9904 9897 9889 9881 9873 9864 9856 9848 9840 9831 9823 9814 9807 9799 9791 9785 9779 9772 9766
10262 10255 10249 10242 10236 10229 10223 10217 10212 10207 10204 10200 10195 10190 10185 10181 10176 10171 10166 10161 10157 10153 10148 10143 10138 10132 10127 10123 10117 10112 10107 10102 10095 10089 10084 10078 10072 10067 10061 10056 10051 10045 10040 10035 10030 10025 10019 10013 10007 10001 9995 9988 9982 9976 9970 9964 9957 9951 9945 9938 9931 9924 9917 9911 9904 9898 9891 9884 9876 9867 9859 9850 9842 9833 9824 9815 9807 9799 9792 9784 9776 9769 9764 9758 9751
10251 10244 10237 10231 10225 10219 10213 10207 10202 10197 10193 10189 10185 10181 10176 10172 10167 10162 10157 10152 10147 10143 10138 10133 10128 10122 10117 10112 10106 10101 10096 10091 10085 10079 10073 10068 10062 10057 10051 10046 10041 10035 10030 10025 10019 10014 10008 10002 9996 9990 9983 9977 9971 9965 9959 9952 9946 9940 9933 9926 9919 9912 9905 9898 9891 9884 9877 9870 9862 9853 9845 9836 9828 9819 9809 9800 9792 9784 9777 9769 9761 9755 9749 9743 9737
10240 10233 10227 10222 10216 10210 10204 10198 10192 10187 10182 10177 10173 10170 10166 10161 10157 10152 10147 10142 10138 10133 10128 10122 10117 10111 10105 10100 10094 10090 10085 10079 10073 10068 10063 10057 10052 10047 10041 10036 10031 10025 10020 10014 10008 10002 9997 9991 9984 9978 9972 9965 9959 9953 9946 9940 9934 9927 9920 9913 9906 9899 9891 9884 9877 9869 9862 9855 9847 9839 9830 9821 9812 9804 9795 9785 9777 9770 9762 9755 9747 9741 9736 9730 9724
10231 10224 10219 10213 10207 10201 10195 10189 10184 10179 10174 10168 10163 10159 10155 10151 10146 10141 10137 10132 10127 10122 10117 10112 10106 10100 10094 10089 10083 10078 10073 10068 10062 10057 10052 10047 10041 10036 10031 10025 10020 10015 10009 10003 9997 9991 9985 9979 9973 9966 9960 9954 9947 9941 9934 9928 9921 9914 9908 9900 9893 9886 9878 9870 9863 9855 9847 9840 9832 9823 9815 9806 9797 9788 9780 9771 9763 9756 9748 9741 9734 9728 9722 9717 9711
10219 10213 10208 10203 10197 10191 10185 10180 10175 10170 10165 10160 10154 10149 10145 10140 10135 10130 10126 10121 10116 10111 10106 10102 10096 10091 10085 10079 10073 10068 10063 10058 10052 10046 10041 10035 10030 10025 10020 10014 10009 10003 9997 9991 9985 9979 9973 9967 9960 9954 9947 9941 9935 9928 9922 9915 9908 9902 9895 9888 9880 9872 9864 9856 9849 9841 9833 9826 9818 9809 9799 9790 9781 9773 9764 9757 9749 9742 9734 9727 9721 9716 9710 9704 9699
10208 10202 10197 10191 10186 10181 10176 10171 10166 10161 10156 10151 10145 10140 10134 10129 10125 10120 10116 10111 10105 10100 10096 10091 10086 10080 10074 10068 10063 10057 10052 10047 10041 10035 10029 10024 10019 10013 10008 10003 9997 9991 9985 9979 9973 9966 9960 9954 9947 9941 9934 9928 9922 9915 9908 9902 9895 9888 9881 9874 9866 9858 9850 9842 9835 9827 9819 9811 9803 9794 9785 9775 9766 9758 9750 9743 9735 9728 9721 9714 9708 9703 9698 9692 9687
10196 10190 10185 10180 10175 10171 10166 10161 10156 10152 10146 10141 10136 10130 10125 10120 10115 10110 10105 10100 10094 10089 10083 10078 10072 10067 10061 10056 10051 10046 10040 10035 10029 10023 10018 10012 10007 10001 9996 9990 9985 9979 9972 9966 9960 9954 9947 9941 9934 9927 9921 9914 9908 9901 9895 9888 9881 9874 9867 9860 9852 9844 9836 9828 9820 9813 9805 9797 9789 9780 9771 9761 9752 9744 9736 9730 9723 9715 9708 9702 9695 9690 9686 9681 9676
10186 10180 10176 10171 10166 10162 10157 10152 10147 10143 10137 10132 10127 10122 10116 10111 10105 10099 10093 10087 10081 10075 10070 10064 10059 10054 10049 10043 10038 10033 10028 10022 10017 10011 10005 10000 9994 9989 9983 9977 9972 9966 9960 9954 9948 9941 9935 9928 9921 9914 9908 9901 9894 9888 9881 9874 9867 9860 9852 9845 9838 9830 9823 9815 9806 9798 9790 9782 9774 9765 9757 9748 9739 9731 9723 9717 9710 9703 9697 9690 9684 9678 9674 9669 9664
10176 10171 10167 10161 10156 10151 10146 10141 10137 10132 10127 10121 10116 10110 10104 10099 10093 10087 10081 10075 10069 10064 10058 10053 10048 10043 10037 10032 10027 10021 10016 10010 10005 9999 9994 9988 9982 9976 9970 9965 9959 9954 9948 9942 9935 9928 9922 9915 9908 9901 9895 9888 9881 9874 9867 9860 9853 9845 9838 9831 9824 9816 9809 9801 9792 9784 9775 9767 9759 9751 9742 9734 9727 9719 9711 9704 9698 9692 9686 9680 9673 9668 9663 9659 9654
10166 10160 10155 10150 10145 10139 10134 10129 10123 10118 10113 10107 10102 10097 10091 10086 10080 10075 10069 10064 10058 10053 10048 10043 10038 10033 10027 10022 10016 10011 10005 10000 9994 9988 9982 9976 9970 9964 9959 9953 9948 9942 9935 9929 9922 9915 9909 9903 9896 9889 9882 9875 9868 9860 9853 9845 9838 9831 9823 9816 9809 9801 9794 9786 9778 9769 9761 9753 9744 9736 9728 9720 9713 9706 9699 9692 9686 9680 9674 9669 9663 9657 9653 9648 9644
10154 10149 10144 10139 10133 10128 10122 10117 10111 10106 10101 10096 10091 10086 10081 10076 10070 10065 10059 10054 10049 10044 10039 10033 10028 10023 10017 10011 10006 10000 9994 9989 9983 9977 9971 9965 9959 9954 9948 9941 9935 9929 9922 9916 9910 9903 9897 9891 9883 9876 9869 9861 9854 9846 9838 9830 9823 9816 9809 9801 9794 9786 9778 9771 9763 9755 9747 9739 9730 9721 9713 9706 9700 9693 9686 9680 9674 9668 9663 9657 9652 9647 9643 9639 9634
10143 10138 10132 10127 10122 10116 10111 10105 10101 10095 10090 10086 10081 10076 10071 10066 10060 10055 10051 10046 10041 10035 10029 10023 10018 10012 10006 10001 9995 9989 9983 9978 9972 9966 9960 9954 9948 9942 9935 9929 9922 9916 9910 9904 9898 9891 9884 9877 9870 9863 9855 9847 9839 9832 9824 9816 9809 9802 9794 9786 9779 9771 9764 9756 9748 9740 9733 9725 9716 9708 9700 9693 9686 9680 9674 9668 9663 9658 9652 9647 9643 9638 9634 9630 9626
10132 10126 10121 10115 10110 10105 10100 10095 10090 10085 10080 10075 10070 10065 10060 10056 10050 10045 10041 10035 10030 10024 10019 10013 10008 10002 9996 9990 9984 9978 9972 9967 9961 9955 9949 9942 9936 9929 9923 9917 9911 9905 9899 9892 9886 9879 9871 9864 9856 9849 9841 9833 9826 9818 9810 9803 9795 9788 9780 9772 9765 9757 9749 9741 9734 9726 9718 9711 9703 9695 9688 9681 9674 9668 9663 9658 9653 9648 9642 9637 9633 9630 9626 9622 9618